Theta_e
287 287 286 286 286 286 286 286 286 286 286 286 287 287 287 287 287 287 286 286 286 286 286 286 287 287 287 287 287 287 287 287 286 286 286 287 287 287 287 287 287 287 287 287 287 287 288 288 288 288 288 288 288 288 288 288 288 288 288 288 289 289 289 289 289 290 290 290 290 291 291 291 291 291 291 292 292 292 292 292 292 292 292 293 293 293
286 286 286 286 286 286 286 286 286 286 286 286 286 286 286 286 286 286 286 286 286 286 287 287 287 287 287 286 286 286 286 286 286 286 286 286 286 286 286 286 286 287 287 287 287 287 287 287 287 287 287 287 287 287 288 288 288 288 288 288 289 289 289 289 289 289 290 290 290 290 290 291 291 291 292 292 292 292 292 292 292 292 292 292 293 293
286 286 286 286 286 286 286 286 286 286 286 286 286 286 286 286 286 286 286 286 286 287 287 287 287 286 286 286 286 286 286 286 286 286 286 286 286 286 286 286 286 286 286 287 287 287 287 287 287 287 287 287 287 288 288 288 288 288 288 288 289 289 289 289 289 289 290 290 290 290 290 290 290 291 291 291 291 291 292 292 291 292 292 292 292 293
286 286 286 286 286 286 286 286 286 286 286 286 286 286 286 286 286 287 287 287 287 287 287 286 286 286 286 285 285 285 285 285 285 286 286 286 286 286 286 286 286 286 286 286 286 286 287 287 287 287 287 287 288 288 288 288 288 288 288 288 289 289 289 289 289 290 290 290 290 290 290 290 290 291 291 291 291 291 291 291 291 291 291 292 292 292
286 286 286 285 285 285 286 286 286 286 286 286 286 286 286 287 287 287 287 287 287 287 286 286 286 285 285 285 285 285 285 285 285 285 285 285 285 286 286 286 286 286 286 286 286 286 287 287 287 287 287 287 287 288 288 288 288 288 288 289 289 289 289 289 289 290 290 290 290 290 290 290 290 290 290 290 291 291 291 291 291 291 291 291 292 292
286 285 285 285 285 285 286 286 286 286 286 286 286 287 287 287 287 287 287 287 286 286 286 285 285 285 285 285 285 285 285 285 285 285 285 285 285 285 285 286 286 286 286 286 286 286 287 287 287 287 287 287 288 288 288 288 288 288 288 289 289 289 289 289 289 289 289 289 289 290 290 290 290 290 290 290 290 290 290 291 291 291 291 291 291 292
285 285 285 285 285 285 285 286 286 286 286 287 287 287 287 287 287 287 286 286 286 285 285 285 285 285 285 285 285 285 285 285 285 285 285 285 285 285 285 285 286 286 286 286 286 286 287 287 287 287 287 287 287 288 288 288 288 288 288 288 289 289 289 289 289 289 289 289 289 289 289 289 289 289 289 289 289 289 289 290 290 290 290 291 291 291
285 285 285 285 285 286 286 286 286 286 287 287 287 287 287 287 286 286 286 285 285 285 285 285 285 285 284 284 284 284 284 284 284 285 285 285 285 285 285 285 286 286 286 286 286 286 286 287 287 287 287 287 287 287 287 288 288 288 288 288 288 288 288 288 288 288 288 288 288 288 288 288 288 288 289 289 289 289 289 289 289 289 290 290 290 290
285 285 285 285 286 286 286 286 287 287 287 287 287 287 287 286 286 285 285 285 285 285 284 284 284 284 284 284 284 284 284 284 284 284 285 285 285 285 285 285 286 286 286 286 286 286 286 286 286 286 287 287 287 287 287 287 287 287 287 287 287 287 287 287 287 287 287 287 288 288 288 288 288 288 288 288 288 289 289 289 289 289 289 290 290 290
285 285 286 286 286 286 287 287 287 287 287 287 286 286 286 285 285 285 285 285 284 284 284 284 284 284 284 284 284 284 284 284 284 285 285 285 285 285 285 285 285 285 285 286 286 286 286 286 286 286 286 286 286 286 286 286 286 286 286 286 286 286 287 287 287 287 287 287 287 287 287 288 288 288 288 288 288 288 288 289 289 289 289 289 290 290
286 286 286 287 287 287 287 287 287 287 286 286 286 285 285 285 285 285 285 284 284 284 284 284 284 284 284 284 284 284 284 284 285 285 285 285 285 285 285 285 285 285 285 285 285 285 285 285 285 285 286 286 286 286 286 286 286 286 286 286 286 286 286 286 286 286 287 287 287 287 287 287 287 287 288 288 288 288 288 288 288 288 289 289 289 290
287 287 287 287 287 287 287 287 286 286 285 285 285 285 285 285 284 284 284 284 284 284 284 284 284 284 284 284 284 284 284 284 285 285 285 285 285 285 285 285 285 285 285 285 285 285 285 285 285 285 285 285 285 285 285 285 285 285 285 285 286 286 286 286 286 286 286 286 286 287 287 287 287 287 287 287 288 288 288 288 288 288 289 289 289 289
287 287 287 287 287 287 286 286 285 285 285 285 285 285 285 284 284 284 284 284 284 284 284 284 284 284 284 284 284 284 284 285 285 285 285 285 285 285 285 285 285 285 285 285 285 285 285 285 285 285 285 285 285 285 285 285 285 285 285 285 285 285 285 285 286 286 286 286 286 287 287 287 287 287 287 287 288 288 288 288 288 289 289 289 289 289
288 288 287 287 286 286 285 285 285 285 285 285 284 284 284 284 284 284 284 284 283 283 283 284 284 284 284 284 284 284 284 284 285 285 285 285 285 285 285 285 284 285 284 284 284 284 284 284 284 284 284 284 284 284 284 285 285 285 285 285 285 285 285 285 286 286 286 286 287 287 287 287 287 287 288 288 288 288 288 288 289 289 289 289 289 289
287 287 286 286 285 285 285 285 285 284 284 284 284 284 284 284 284 283 283 283 283 284 284 284 284 284 284 284 284 284 284 284 284 284 285 285 285 284 284 284 284 284 284 284 284 284 284 284 284 284 284 284 284 284 284 284 284 284 285 285 285 285 285 286 286 286 286 286 287 287 287 287 287 287 287 288 288 288 288 288 288 288 289 289 289 289
286 286 285 285 285 285 285 284 284 284 284 284 284 284 284 284 283 283 283 283 284 284 284 284 284 285 284 284 284 284 284 284 284 284 285 285 285 284 284 284 284 284 284 284 284 284 284 284 284 284 284 284 284 284 284 284 284 284 285 285 285 285 285 285 286 286 286 286 286 286 287 287 287 287 287 287 287 288 288 288 288 288 288 288 288 289
285 285 285 285 285 284 284 284 284 284 284 284 284 284 284 283 283 283 284 284 284 284 284 285 285 285 284 284 284 284 284 284 284 284 284 284 284 284 284 284 284 284 284 284 284 284 284 284 284 284 284 284 284 284 284 284 284 285 285 285 285 285 285 285 286 286 286 286 286 286 287 287 287 287 287 287 287 287 288 288 288 288 288 288 288 288
285 285 285 285 284 284 284 284 284 284 284 284 284 283 283 283 284 284 284 284 284 284 285 285 284 284 284 284 284 284 284 284 284 284 284 284 284 284 284 284 284 284 284 284 284 284 284 284 284 284 284 284 284 284 284 284 284 284 285 285 285 285 285 286 286 286 286 286 286 286 287 287 287 287 287 287 287 288 288 288 288 288 288 288 288 289
284 284 284 284 284 284 284 284 284 284 283 284 284 284 284 284 284 284 284 284 285 285 285 284 284 284 284 284 284 284 284 284 284 284 284 284 284 284 284 284 284 284 284 284 284 284 284 284 284 284 284 284 284 284 284 284 284 284 285 285 285 285 285 285 286 286 286 286 286 286 286 287 287 287 287 287 287 287 288 288 288 288 288 289 289 289
284 284 284 284 284 284 284 284 284 284 284 284 284 284 284 284 284 284 285 285 285 284 284 284 284 284 284 284 284 284 284 284 284 284 284 284 284 284 284 284 284 284 284 284 284 284 284 284 284 284 284 284 284 284 284 284 284 284 285 285 285 285 285 285 286 286 286 286 286 286 287 287 287 287 287 287 287 287 287 288 288 288 288 289 289 289
284 284 283 283 283 284 284 284 284 284 284 284 284 284 284 285 285 285 285 285 284 284 284 283 283 283 283 284 284 284 284 284 284 284 284 284 284 284 284 284 284 284 284 284 284 284 284 283 283 284 283 284 284 284 284 284 284 284 284 285 285 285 285 285 286 286 286 286 286 286 287 287 287 287 287 287 287 287 287 287 288 288 288 288 288 289
283 283 283 283 283 283 284 284 284 284 284 284 284 285 285 285 285 285 285 284 284 284 283 283 283 283 283 283 283 283 283 283 284 284 284 284 284 284 284 284 284 284 284 284 283 283 283 283 283 283 283 283 283 284 284 284 284 284 284 285 285 285 285 286 286 286 286 286 286 286 286 287 287 287 287 287 287 287 287 287 287 287 288 288 288 288
283 283 283 283 283 284 284 284 284 284 284 285 285 285 285 285 285 284 284 284 284 283 283 283 283 283 283 283 283 283 283 283 283 283 284 284 284 284 284 284 283 283 283 283 283 283 283 283 283 283 283 283 283 284 284 284 284 284 285 285 285 285 285 286 286 286 286 286 286 286 287 287 287 287 287 287 287 288 288 288 288 288 288 288 288 288
283 283 284 284 284 284 284 284 284 285 285 285 286 285 285 284 284 284 284 283 283 283 283 283 283 283 283 283 283 283 283 283 283 283 283 284 284 284 283 283 283 283 283 283 283 283 283 283 283 283 283 283 283 284 284 284 284 285 285 285 285 285 285 286 286 286 286 286 286 287 287 287 287 287 287 287 288 288 288 288 288 288 288 288 288 288
284 284 284 284 284 284 285 285 285 285 286 286 285 284 284 284 283 283 283 283 283 283 283 283 283 283 283 283 283 283 283 283 283 283 283 283 283 283 283 283 283 283 283 283 283 283 283 283 283 283 283 283 284 284 284 284 284 284 285 285 285 285 285 286 286 286 286 286 286 286 286 287 287 287 287 287 287 287 288 288 288 288 288 288 288 288
284 284 284 284 285 285 285 285 285 285 285 285 284 284 283 283 283 283 283 283 283 283 283 283 283 283 283 283 283 283 283 283 283 283 283 283 283 283 283 283 283 283 283 283 283 283 283 283 283 283 283 283 284 284 284 284 284 284 285 285 285 285 286 286 286 286 286 286 286 286 286 286 286 287 287 287 287 287 287 288 288 288 288 288 288 288
284 284 285 285 285 285 285 285 284 284 284 283 283 283 283 283 283 283 283 283 283 283 283 283 283 283 283 283 283 283 283 283 283 283 283 283 283 283 283 283 283 283 283 283 283 283 283 283 283 283 283 283 283 284 284 284 284 285 285 285 285 285 285 285 285 286 286 286 286 286 286 286 287 287 287 287 287 287 287 288 288 288 288 288 288 288
284 284 285 284 284 284 284 283 283 283 283 283 283 283 283 282 282 282 282 282 282 282 282 283 283 283 283 283 283 283 283 283 283 283 283 283 283 283 283 283 283 283 283 283 283 283 283 283 283 283 283 284 284 284 284 284 284 284 285 285 285 285 285 285 285 286 286 286 286 286 286 287 287 287 287 287 287 288 288 288 288 288 288 288 288 288
284 284 284 283 283 283 282 282 282 282 282 282 282 282 282 282 282 282 282 282 282 282 282 282 283 283 283 283 283 282 283 283 283 283 283 283 283 283 283 283 283 283 282 283 283 283 283 283 283 283 284 284 284 284 284 284 284 284 284 284 284 285 285 285 285 285 286 286 286 287 287 287 287 287 288 288 288 288 288 288 288 288 288 288 288 288
284 283 283 282 282 282 282 282 281 281 281 281 282 282 282 282 282 282 282 282 282 282 282 282 282 282 282 282 282 282 282 283 283 283 283 283 283 283 283 283 282 282 282 283 283 283 283 283 284 284 284 284 284 284 284 284 284 284 284 284 285 285 285 285 285 286 286 286 286 287 287 287 287 288 288 288 288 288 288 288 288 288 288 288 289 288
283 282 282 282 281 281 281 281 281 281 281 281 281 281 281 281 281 281 281 281 281 281 282 282 282 282 282 282 282 282 283 283 283 283 283 282 282 282 282 282 282 282 282 282 283 283 283 284 284 284 284 284 284 284 284 284 284 284 284 285 285 285 285 285 286 286 286 287 287 287 287 287 287 287 288 288 288 288 288 288 288 288 288 288 288 288
282 282 281 281 281 281 281 281 281 281 281 281 281 281 281 281 281 281 281 281 281 281 281 281 281 282 281 282 282 282 283 282 282 282 282 282 282 282 282 282 282 282 282 282 282 283 283 283 283 283 283 283 284 284 284 284 284 285 285 285 285 285 285 286 286 286 286 287 287 287 287 287 287 287 288 288 288 288 288 288 288 288 288 288 288 288
281 281 281 281 281 281 281 281 281 281 281 281 281 281 281 281 281 281 281 281 281 281 281 281 281 281 281 281 281 282 282 282 282 282 282 282 282 282 282 282 282 282 282 282 282 282 283 283 283 283 283 283 284 284 284 284 285 285 285 285 286 286 286 286 286 286 287 287 287 287 287 287 287 287 287 287 287 288 288 288 288 288 288 288 288 288
281 281 281 281 281 281 281 281 281 281 281 281 281 281 281 281 281 281 281 281 281 281 281 281 281 281 281 281 281 281 282 282 282 282 282 282 282 282 282 282 282 282 282 282 282 282 283 283 283 283 283 283 284 284 284 285 285 285 285 286 286 286 286 286 286 286 286 287 287 287 287 287 287 287 287 287 287 287 287 288 288 288 288 288 288 288
281 281 281 281 281 281 281 281 281 281 281 281 281 281 281 281 281 281 281 281 281 281 281 281 281 281 281 281 281 281 282 282 282 282 282 282 282 282 282 282 282 282 282 282 282 283 283 283 283 283 283 284 284 284 284 285 285 285 286 286 286 286 286 286 286 286 286 286 287 287 287 287 287 287 287 287 287 287 287 288 288 288 288 288 288 288
281 281 281 281 281 281 281 281 281 281 281 281 281 281 281 281 281 281 281 281 281 281 281 281 281 281 281 281 281 281 281 281 281 282 282 282 282 282 282 282 282 282 282 282 282 282 283 283 283 283 283 284 284 284 285 285 285 285 285 285 285 286 286 286 286 286 286 286 287 287 287 287 287 287 287 287 288 288 288 288 288 288 288 289 289 289
281 281 281 281 281 281 281 281 281 281 281 281 281 281 281 281 281 281 281 281 280 281 281 281 281 281 281 281 281 281 281 281 281 281 281 281 281 281 281 282 282 282 282 282 282 282 282 283 283 283 283 284 284 284 285 285 285 285 285 285 285 286 286 286 286 286 287 287 287 287 287 288 288 288 288 288 288 288 288 288 288 288 288 289 289 289
281 281 281 281 281 281 281 281 281 281 281 281 281 281 281 281 280 280 281 280 280 281 281 281 281 281 281 281 281 281 281 281 281 281 281 281 281 281 281 281 282 282 282 282 282 282 282 283 283 283 283 284 284 284 284 284 285 285 285 285 286 286 286 286 286 287 287 287 287 288 288 288 288 288 288 288 288 288 288 288 288 288 288 288 289 289
281 281 281 281 281 281 281 281 281 280 280 280 280 280 280 280 280 281 281 281 281 281 281 281 281 281 281 281 282 282 282 282 282 282 282 282 282 282 282 282 282 282 282 282 282 282 282 283 283 283 283 284 284 284 284 284 285 285 285 285 285 286 286 286 287 287 287 287 287 287 287 288 288 288 288 288 288 288 288 288 288 288 289 289 289 289
281 281 281 281 281 281 280 280 280 280 280 280 280 280 280 280 281 281 281 281 281 281 281 281 282 282 282 282 282 282 282 282 282 282 282 282 282 282 282 282 282 282 282 282 282 282 282 282 283 283 283 283 284 284 284 284 285 285 285 285 286 286 286 286 287 287 287 287 287 288 288 288 288 288 288 288 288 289 289 289 289 289 289 289 289 289
281 281 281 281 281 280 280 280 280 280 280 280 280 280 281 281 281 281 281 281 281 282 282 282 282 282 282 282 282 282 282 282 282 282 282 282 282 282 282 282 282 282 282 282 282 283 283 283 283 283 283 283 284 284 284 284 285 285 285 285 286 286 286 286 287 287 287 287 288 288 288 288 288 288 288 289 289 289 289 289 289 289 290 290 290 289
281 281 281 280 280 280 280 280 280 280 280 280 280 280 281 281 281 281 281 282 282 282 282 282 282 282 282 282 282 282 282 283 283 283 283 283 283 282 282 282 282 282 282 283 283 283 283 283 283 283 284 284 284 284 284 284 285 285 285 285 286 286 286 287 287 288 288 288 288 288 288 288 288 289 289 289 289 289 289 290 290 290 290 290 290 290
281 281 280 280 280 280 280 280 280 280 280 280 280 280 281 281 281 281 281 282 282 282 282 282 282 282 282 282 282 283 283 283 283 283 283 283 283 283 283 283 283 283 283 283 283 283 283 284 284 284 284 284 284 284 285 285 285 285 285 285 286 286 287 287 288 288 288 288 288 288 288 288 289 289 289 289 289 289 290 290 290 290 290 291 291 291
280 280 280 280 280 280 280 280 280 280 280 280 280 281 281 281 281 281 282 282 282 282 282 282 282 282 282 282 283 283 283 283 283 283 283 283 283 283 283 283 283 283 283 284 284 284 284 284 284 284 284 284 284 285 285 285 285 285 285 286 286 286 287 287 288 288 288 288 288 288 288 289 289 289 289 289 289 289 290 290 290 290 290 291 291 291
280 280 280 280 280 280 280 280 280 280 280 280 281 281 281 281 281 281 282 282 282 282 282 282 282 282 282 283 283 283 283 283 283 283 283 283 284 284 284 284 284 284 284 284 284 284 284 284 284 284 284 284 284 284 285 285 285 285 286 286 287 287 287 287 288 288 288 288 288 289 289 289 289 289 289 289 289 290 290 290 290 290 290 291 291 291
280 280 280 280 280 280 280 280 280 280 280 280 281 281 281 281 281 282 282 282 282 282 282 282 282 282 282 282 283 283 283 283 284 284 284 284 284 284 284 284 284 284 284 284 284 284 284 284 284 284 284 284 284 285 285 285 285 286 286 287 287 287 288 288 288 288 288 288 289 289 289 289 289 289 289 289 290 290 290 290 290 291 291 291 291 291
280 280 280 280 280 280 280 280 280 280 280 281 281 281 281 281 281 282 282 282 282 282 282 282 282 282 282 282 283 283 283 283 284 284 284 284 284 284 284 284 284 284 285 285 285 284 284 284 284 284 284 285 285 285 285 286 286 287 287 287 287 287 288 288 288 288 288 288 289 289 289 289 289 289 289 289 290 290 290 290 290 291 291 291 291 291
280 280 280 280 280 280 280 280 280 280 280 280 281 281 281 281 282 282 282 282 282 282 282 282 282 282 282 282 283 283 283 283 284 284 284 284 284 284 284 284 285 285 285 285 285 285 285 285 285 285 285 285 285 285 286 286 286 287 287 287 287 287 288 288 288 288 288 289 289 289 289 289 289 289 289 289 290 290 290 290 290 290 290 291 291 291
279 279 279 279 279 280 280 280 280 280 280 281 281 281 281 281 282 282 282 282 282 282 282 282 282 282 282 283 283 283 283 283 284 284 284 284 284 284 284 285 285 285 285 285 285 285 285 285 285 285 286 286 286 286 286 287 287 287 287 287 287 287 288 288 288 288 288 288 289 289 289 289 289 289 289 289 290 290 290 290 290 290 290 291 291 291
279 279 279 279 279 280 280 280 280 280 280 280 281 281 281 281 281 282 282 282 282 282 282 282 282 282 283 283 283 283 283 283 284 284 284 284 285 285 285 285 285 285 285 285 285 285 285 285 286 286 286 286 287 287 287 287 287 287 287 287 287 287 288 288 288 288 288 288 288 288 288 289 289 289 289 290 290 290 290 290 290 290 290 291 291 291
279 279 279 279 279 280 280 280 280 280 280 280 280 281 281 281 281 282 282 282 282 282 282 282 282 283 283 283 283 283 284 284 284 284 284 284 285 284 285 285 285 285 285 285 285 285 285 286 286 286 286 287 287 287 288 288 288 288 288 288 287 287 288 288 288 288 288 288 288 288 288 289 289 289 289 290 290 290 290 290 290 290 290 291 291 291
Wind_Speed
22 23 23 23 24 25 25 24 24 25 26 25 25 24 25 25 25 26 26 26 27 27 27 27 27 28 28 29 30 30 31 32 33 33 34 34 34 34 34 35 35 35 35 36 36 37 37 37 38 38 38 38 38 38 38 38 38 38 38 38 38 38 38 38 38 38 38 38 38 38 39 39 39 39 39 40 40 41 41 41 42 42 42 42 41 41
23 23 23 23 24 25 25 24 24 24 25 26 26 26 26 26 27 27 26 26 26 25 26 26 27 27 28 29 30 31 32 32 33 33 33 33 33 34 34 34 35 35 36 36 37 37 37 38 38 38 38 38 38 38 38 38 38 38 38 38 38 38 38 38 38 38 38 38 38 38 38 38 38 38 38 39 39 40 39 40 41 41 41 41 41 41
24 24 24 23 23 24 25 25 25 24 25 26 27 27 27 27 27 26 25 25 25 25 25 25 27 28 29 30 30 31 31 31 32 32 32 33 33 34 34 35 36 36 37 37 37 38 38 38 38 38 38 38 38 38 38 38 38 39 39 39 39 39 39 39 39 39 39 39 39 39 39 39 39 39 39 39 40 40 40 40 40 40 39 40 40 40
24 24 24 24 24 24 24 25 26 25 25 26 27 27 27 26 25 24 24 24 25 25 26 26 27 28 29 29 30 30 30 30 31 31 32 33 34 34 35 36 36 37 37 37 37 37 38 38 38 38 38 38 38 38 39 39 39 39 39 39 39 39 39 39 39 40 40 40 40 40 40 39 39 39 39 39 40 40 41 41 40 39 38 38 38 38
23 23 24 25 24 24 25 25 25 26 26 26 25 25 25 24 23 23 24 25 25 26 26 27 27 28 28 28 29 29 29 30 31 32 33 33 34 35 35 36 36 37 37 37 37 37 37 37 37 37 38 38 38 38 39 39 39 39 39 39 39 40 40 40 40 40 40 40 40 40 40 40 40 39 39 39 40 40 41 41 40 38 37 37 37 37
23 24 25 25 25 25 25 25 25 25 25 25 24 22 22 22 23 23 25 25 26 26 27 27 27 27 27 28 28 29 30 30 32 32 33 34 34 34 35 35 36 36 36 36 36 36 37 37 37 38 38 38 38 39 39 39 39 40 40 40 40 40 40 40 40 40 40 40 40 40 40 40 40 40 39 40 40 40 41 41 41 40 39 39 38 37
25 25 24 25 25 25 25 25 24 24 24 23 22 21 21 22 24 25 25 26 26 26 27 27 27 27 27 27 27 28 29 30 31 32 32 33 33 33 34 34 35 35 35 36 36 36 36 37 37 37 38 38 39 39 39 39 40 40 40 40 40 40 40 40 40 40 40 40 40 40 40 40 40 40 40 40 40 40 41 41 42 41 41 41 40 39
26 26 25 24 25 26 25 24 23 21 21 21 21 22 23 24 25 26 26 26 26 26 26 26 26 26 26 26 27 28 29 30 31 31 31 32 32 32 33 33 34 35 35 35 35 36 36 36 37 37 38 38 38 39 39 39 39 40 40 40 40 40 40 40 40 40 40 40 40 40 40 39 39 39 39 39 39 39 40 40 41 41 42 42 42 42
25 25 25 24 24 24 24 24 21 19 19 20 21 23 25 26 27 27 26 26 25 25 25 25 26 26 26 27 27 28 29 30 30 31 31 31 31 32 32 33 34 34 34 35 35 35 36 36 36 37 37 37 38 38 38 39 39 39 39 39 39 40 40 40 40 40 40 40 39 39 39 39 39 38 38 38 38 38 39 39 40 40 41 41 42 42
24 24 25 25 23 22 21 21 20 19 19 20 22 24 25 27 27 26 26 25 24 24 24 25 26 27 27 27 27 28 29 30 31 32 32 31 32 32 32 33 33 33 34 34 34 35 35 35 36 36 36 37 37 37 37 38 38 38 38 38 38 39 39 39 39 39 39 39 39 38 38 38 38 38 38 38 38 38 38 38 39 39 40 40 40 40
23 23 23 22 21 19 18 18 18 19 21 23 25 26 25 25 25 25 24 24 25 25 25 25 26 26 27 27 28 28 29 30 31 31 31 30 30 30 30 31 31 32 32 33 33 33 34 34 34 35 35 36 36 36 36 36 37 37 37 37 37 38 38 38 38 38 38 38 38 38 37 37 37 37 37 37 37 37 38 38 38 38 39 39 39 39
21 21 19 18 17 16 17 18 20 23 24 25 25 25 24 24 23 23 23 23 24 25 26 27 27 27 27 27 27 28 28 29 30 30 29 28 28 27 28 28 29 30 30 30 31 31 32 32 33 33 34 35 35 35 35 35 35 36 36 36 36 36 37 37 37 37 37 37 37 37 37 37 37 37 37 37 37 38 38 38 38 38 38 38 39 39
20 17 15 14 15 17 19 22 24 25 25 24 23 22 22 23 23 23 23 24 25 26 26 27 27 28 27 27 26 26 27 28 29 29 29 28 27 26 26 27 28 28 29 29 29 30 30 31 32 33 33 33 34 34 34 34 34 34 34 35 35 35 36 36 36 37 37 37 37 37 37 37 38 38 38 38 38 38 38 38 38 38 38 38 38 39
16 15 14 15 18 21 23 24 25 24 24 23 23 23 23 24 23 23 23 24 25 26 27 27 28 28 27 26 25 24 25 27 28 29 29 28 27 26 25 26 28 29 29 30 30 30 31 31 31 31 32 32 32 32 32 32 32 33 33 34 34 35 35 36 37 37 37 38 38 38 38 38 39 39 39 39 39 39 39 39 39 39 39 39 39 39
14 15 16 18 20 22 24 24 24 24 24 24 24 24 24 24 23 23 22 23 25 26 26 26 27 27 26 25 23 23 24 25 27 28 28 28 27 26 26 27 29 30 30 30 30 31 31 30 30 30 31 31 31 31 31 32 32 33 33 34 35 36 36 37 37 38 38 39 39 39 39 39 39 39 39 39 39 39 39 39 39 39 39 39 39 39
17 18 18 19 21 23 24 24 24 24 24 24 24 23 23 22 22 22 22 23 24 25 24 23 22 22 24 25 24 22 22 24 25 26 27 28 28 27 26 27 29 30 31 30 30 30 30 29 29 30 30 30 31 31 32 32 33 34 35 35 36 37 38 38 38 39 39 39 39 39 39 39 39 40 39 39 39 39 39 39 39 39 39 39 39 39
21 21 21 21 21 23 24 24 24 24 24 23 23 22 22 22 22 22 22 23 23 22 21 18 12 9 15 24 26 23 22 23 24 26 27 29 29 29 27 27 28 30 31 30 30 30 29 29 29 29 30 30 31 32 33 34 34 35 36 37 37 38 38 38 39 39 39 39 39 39 39 40 40 40 40 40 40 40 39 39 39 39 39 39 40 39
22 22 22 21 22 23 24 24 23 23 23 22 22 22 22 22 23 23 24 23 22 20 19 18 14 9 7 14 22 26 24 24 25 27 28 29 30 30 29 28 28 29 30 30 30 29 29 29 29 30 30 32 33 34 34 35 36 36 36 37 37 37 38 38 38 39 39 39 39 39 40 40 40 40 40 40 40 40 40 40 40 40 40 40 40 40
22 22 22 22 23 23 23 23 22 22 21 21 22 22 23 24 24 23 22 22 22 20 19 17 18 18 16 19 25 28 27 26 26 27 27 28 30 31 29 27 27 29 30 29 29 29 28 29 30 31 32 33 34 34 34 35 35 35 36 36 37 37 38 38 39 39 39 39 39 39 40 40 40 40 40 40 40 40 40 40 40 40 40 40 40 40
23 23 23 22 23 22 22 22 22 22 22 22 23 23 23 24 24 23 22 22 21 21 20 20 20 21 23 25 28 30 28 27 26 26 26 28 29 30 28 27 27 28 29 29 29 28 28 29 30 31 31 32 32 33 33 34 35 36 37 37 38 38 39 39 39 39 39 39 39 40 40 40 40 40 40 40 40 40 40 40 40 40 41 41 40 40
23 23 23 23 23 22 22 22 23 23 23 24 25 25 24 24 23 22 22 22 22 23 23 21 22 23 25 26 29 30 30 27 25 25 26 26 27 28 27 26 26 27 28 29 29 28 28 29 29 30 30 31 32 33 34 35 36 37 38 38 38 39 39 39 39 39 39 39 39 39 39 39 39 39 39 39 39 39 40 39 39 40 40 40 40 40
23 23 24 24 24 23 23 24 25 25 26 27 26 24 22 21 21 22 23 24 24 24 24 23 24 26 27 29 31 31 30 27 25 23 22 20 23 27 27 26 25 26 27 28 28 28 28 28 29 30 31 33 34 35 36 36 37 37 37 38 38 38 38 38 38 38 38 39 39 39 39 39 39 39 39 39 39 39 39 39 40 40 40 40 40 40
23 24 25 24 24 24 24 25 25 26 27 27 25 23 22 22 21 22 25 25 26 26 26 26 28 28 29 29 30 30 28 26 24 22 20 14 17 25 27 25 25 25 26 27 28 27 28 29 30 31 32 33 34 35 35 36 36 36 36 36 36 36 37 37 37 37 37 38 38 38 38 38 38 39 39 39 39 39 39 40 40 40 40 40 40 41
23 24 24 24 24 24 26 27 27 27 26 25 25 24 25 25 25 25 26 27 27 27 26 27 27 27 27 27 27 27 26 24 22 21 20 16 18 24 27 26 25 26 27 27 27 27 28 30 31 31 32 33 34 34 35 35 35 35 35 35 35 35 35 35 35 36 37 37 37 38 38 38 38 38 39 39 39 39 39 40 40 40 40 40 41 41
24 24 25 25 26 27 28 28 28 28 28 28 28 28 28 27 28 28 27 26 25 24 24 24 23 22 23 24 24 24 24 23 21 20 19 18 21 25 27 25 24 24 26 28 28 28 28 30 31 32 32 32 33 33 33 33 33 33 33 33 33 33 33 34 35 36 37 37 38 38 38 38 38 38 38 38 38 38 39 39 39 39 40 40 41 41
26 27 28 29 30 31 32 32 32 32 32 31 30 29 28 27 27 26 24 23 22 21 20 19 17 17 21 22 22 23 23 22 21 20 20 19 20 23 25 24 23 24 26 28 28 28 29 30 32 32 32 32 32 32 31 31 31 30 31 31 32 32 33 34 35 36 37 37 37 37 37 37 37 37 37 37 37 37 38 38 38 39 39 39 40 40
29 30 30 30 30 30 30 30 30 31 31 30 29 28 27 26 24 22 21 21 20 19 17 13 11 13 18 18 19 22 24 23 21 20 20 20 19 20 22 22 23 24 26 28 29 28 28 29 31 32 31 30 29 29 28 28 29 29 30 31 32 33 33 34 35 36 36 36 36 36 36 36 36 36 36 36 37 37 37 37 38 38 38 38 38 39
27 27 26 26 26 27 27 28 29 29 29 28 27 26 25 23 21 20 20 20 20 19 17 12 10 10 10 12 18 23 25 24 22 21 19 18 16 17 21 23 23 24 25 27 29 29 28 28 28 29 29 28 27 27 27 28 29 30 31 32 32 32 33 33 33 33 34 34 34 34 35 35 36 36 36 37 37 37 37 37 37 37 37 37 36 36
23 23 23 23 24 25 26 26 26 26 25 25 24 23 22 21 19 19 20 21 20 19 18 16 14 12 11 16 21 24 24 24 22 19 17 16 15 18 22 23 23 23 24 25 27 28 27 26 25 24 25 26 26 26 27 28 29 30 30 31 31 31 31 31 31 31 32 32 33 33 34 34 35 36 36 36 37 37 37 37 37 37 36 35 34 33
21 21 22 23 23 23 23 23 23 23 23 22 22 21 20 19 19 20 21 20 19 19 18 18 18 17 16 15 15 15 17 21 20 18 16 15 15 18 22 23 23 23 22 20 18 17 20 22 23 22 23 24 26 27 27 28 28 28 28 29 29 29 28 29 29 30 30 31 32 32 33 33 34 34 35 35 36 36 36 37 36 35 34 34 33 32
22 22 22 22 22 22 21 21 21 21 21 21 20 20 19 18 18 19 20 19 19 18 19 19 19 19 17 10 6 6 7 19 22 20 18 16 16 19 21 21 22 23 21 17 9 6 11 14 21 26 24 25 27 28 28 28 27 27 27 27 27 27 28 28 28 29 30 30 30 31 31 32 32 33 33 34 34 35 35 36 35 34 33 32 32 31
22 22 22 22 21 21 20 20 20 20 19 19 19 18 18 18 18 18 19 19 18 18 19 20 20 20 19 14 11 9 10 21 25 23 21 18 18 20 21 21 21 22 22 20 15 10 8 7 17 28 28 28 28 28 28 27 27 26 27 27 26 27 27 27 28 28 28 28 29 29 30 31 31 32 32 33 33 34 34 35 34 34 33 31 30 30
22 21 21 21 20 20 20 19 19 19 18 19 18 18 18 18 18 18 19 19 19 19 18 19 20 20 20 20 19 19 22 26 27 25 22 19 18 20 22 21 21 22 22 22 21 18 12 9 16 25 29 29 28 28 28 27 26 26 25 25 25 26 27 27 26 26 27 28 28 29 30 30 31 31 31 32 32 33 33 33 33 33 32 31 29 29
21 21 20 20 20 20 19 19 19 19 18 18 18 19 18 18 18 18 19 19 19 19 20 20 20 20 20 20 20 23 26 27 27 24 22 20 19 20 22 22 22 22 21 20 21 20 18 19 20 21 23 28 30 29 27 26 26 25 24 24 25 25 26 26 26 26 27 27 27 27 28 28 29 29 30 30 30 31 31 32 32 32 32 31 30 29
20 20 20 19 19 19 19 19 19 19 19 19 19 18 18 19 19 19 19 19 20 20 20 20 21 21 21 20 20 22 25 28 28 26 23 21 20 21 22 22 22 21 19 19 18 17 15 19 22 21 19 22 26 28 28 26 25 24 24 24 25 25 26 26 26 26 26 27 27 27 27 27 27 27 28 29 29 30 31 32 32 33 34 34 33 32
19 19 19 19 18 18 19 19 19 19 19 19 18 19 19 19 19 20 20 21 21 21 22 22 23 24 24 24 23 24 27 30 30 29 26 24 23 22 21 22 23 22 19 19 18 16 12 15 20 23 19 14 16 22 27 27 26 25 25 25 25 25 26 26 25 25 26 26 26 26 26 26 26 27 28 30 31 32 33 33 34 35 35 35 35 35
18 18 18 18 18 18 18 19 19 19 19 19 19 19 19 20 21 21 21 22 23 23 24 24 24 25 26 27 28 29 30 31 32 31 31 29 27 25 23 24 25 24 21 19 19 18 16 13 14 16 15 12 11 15 24 27 27 26 26 25 25 25 26 26 25 25 25 25 26 26 27 27 27 28 29 31 32 32 32 33 33 33 34 34 35 35
18 18 18 18 18 18 18 19 19 19 19 20 20 20 21 22 22 23 23 23 23 24 24 24 24 25 27 28 30 32 33 34 35 36 35 34 31 28 25 24 24 24 22 21 21 20 18 13 11 11 11 12 16 21 25 26 26 26 26 26 26 26 26 26 25 25 25 26 27 28 28 28 28 28 29 29 30 29 29 30 30 30 31 31 32 33
17 18 18 18 18 18 18 18 19 20 20 20 21 21 22 23 23 24 23 23 23 23 23 23 24 25 27 29 30 31 32 33 34 35 35 34 31 29 27 24 24 25 24 23 22 21 19 15 12 10 10 11 15 22 27 26 25 25 27 27 27 27 26 25 25 25 25 26 27 27 27 27 27 27 28 28 28 28 28 28 28 28 28 28 28 29
18 18 18 18 18 18 19 19 20 20 21 21 22 22 22 22 22 23 22 22 22 22 23 23 24 25 26 26 27 27 29 30 31 32 32 32 31 30 27 25 24 24 24 23 22 21 21 19 18 18 18 14 14 18 23 25 26 26 26 23 23 24 26 26 26 26 26 25 25 25 26 27 28 28 28 28 28 27 28 28 28 28 28 26 25 25
18 18 19 19 19 19 19 20 21 21 21 22 22 21 21 21 21 21 21 21 21 21 21 22 22 24 25 25 25 25 26 28 28 28 29 30 30 29 27 26 25 24 24 23 23 22 22 21 21 22 22 21 21 22 23 25 27 27 26 22 21 25 28 28 27 26 25 24 25 25 26 27 28 29 28 28 28 28 29 28 29 30 30 28 26 24
18 18 19 19 19 20 20 20 21 21 21 21 20 20 19 20 20 20 21 21 22 22 21 21 22 23 25 26 26 25 25 25 25 26 26 27 28 28 27 27 26 25 24 23 23 23 23 23 22 21 22 22 21 20 20 25 27 27 25 24 25 27 27 27 25 24 23 24 25 26 27 27 28 29 29 29 29 29 30 30 31 31 30 28 27 26
18 19 19 20 20 20 21 21 21 21 20 20 19 19 19 20 20 20 20 21 21 22 22 22 22 22 23 24 26 26 25 24 23 23 24 25 26 26 26 27 27 26 25 23 22 23 23 23 23 22 23 23 22 19 18 22 25 26 25 25 24 21 16 20 24 26 25 25 26 26 26 27 27 28 28 29 29 30 30 29 29 29 29 29 28 28
18 19 19 20 20 20 21 20 20 20 20 20 20 20 20 20 20 20 20 21 21 21 21 21 21 21 21 22 24 25 25 24 22 21 21 22 23 24 25 26 26 26 26 23 22 21 22 23 23 23 24 23 22 21 20 21 23 24 25 25 24 21 16 19 24 27 27 27 27 26 26 27 28 29 30 30 29 28 28 27 27 27 27 28 27 27
18 19 20 20 20 20 20 20 20 20 19 20 20 20 20 20 20 20 20 20 20 21 21 20 19 19 19 20 22 23 24 24 23 22 21 21 21 22 22 23 24 24 24 23 22 21 20 21 22 24 24 23 22 21 21 21 22 23 24 24 24 23 24 25 26 26 26 26 27 28 28 28 29 31 31 30 29 27 26 25 25 25 26 26 26 26
19 19 19 19 19 19 20 20 20 20 20 20 20 20 20 20 20 19 20 20 20 20 21 20 19 17 17 19 20 21 22 23 24 23 22 22 21 20 20 20 21 22 22 22 23 23 23 23 23 24 24 23 22 22 23 22 21 21 22 23 23 23 24 24 25 25 25 26 27 29 30 30 29 28 27 28 28 27 27 25 24 24 24 25 26 26
19 19 19 19 19 19 19 19 19 19 20 20 21 20 20 20 20 20 20 20 19 20 20 20 19 18 18 19 19 19 19 21 22 24 24 23 22 21 20 20 20 21 21 22 23 24 25 25 26 25 22 20 19 20 22 23 22 21 21 22 23 23 23 24 24 25 25 25 27 29 30 30 29 28 27 27 27 27 27 25 24 24 25 25 25 26
19 19 19 19 20 20 20 19 19 19 20 20 21 21 21 20 20 20 20 20 20 19 19 19 18 18 19 20 20 20 20 20 21 23 23 24 23 22 21 20 20 20 21 21 22 23 24 25 26 26 24 21 18 18 20 22 22 21 21 22 22 22 22 24 25 25 25 25 26 27 28 28 26 25 26 25 25 25 26 27 26 25 26 25 25 25
18 19 19 19 19 19 20 20 19 19 20 21 21 22 22 22 21 20 19 19 19 18 18 18 18 18 18 19 20 21 21 21 21 22 22 23 22 22 21 21 21 21 21 22 22 22 22 23 24 24 24 23 22 21 21 21 21 22 21 21 21 21 22 24 26 26 26 26 27 28 28 27 25 24 23 21 20 21 25 27 27 26 26 26 26 26
19 19 19 19 19 19 19 19 19 20 20 21 22 22 23 23 22 21 19 19 18 18 17 17 18 18 18 19 20 21 21 21 21 21 22 22 22 21 21 21 21 21 21 21 21 20 20 20 20 20 20 20 21 21 20 20 21 21 21 21 21 21 21 23 25 26 27 26 27 27 27 26 25 24 22 19 18 19 22 24 26 27 27 27 27 27
19 19 19 18 18 19 19 19 20 20 20 21 21 22 22 22 21 21 20 19 18 18 18 18 18 18 18 19 20 21 21 20 20 20 21 21 21 21 20 21 20 19 18 16 16 15 14 13 13 15 17 17 16 16 17 18 20 20 20 20 21 21 21 23 24 26 27 26 26 25 25 25 24 22 21 19 16 14 16 19 23 27 29 28 28 28
Wind_Direction
299 301 303 304 303 301 300 300 300 299 299 299 298 298 297 297 296 296 296 295 295 295 294 293 292 291 291 291 291 291 291 291 292 292 291 291 291 291 291 290 290 290 290 290 290 290 289 289 289 289 288 288 287 287 286 286 285 284 284 283 282 282 281 281 281 280 280 280 279 279 278 277 277 276 276 275 274 273 273 272 272 271 271 271 271 272
301 301 302 303 302 301 299 300 299 298 298 298 298 298 298 297 297 297 297 296 295 295 294 294 293 292 292 291 292 292 292 292 292 292 291 291 291 291 290 290 290 290 290 290 290 290 289 289 289 288 287 287 286 285 285 284 284 283 283 282 282 281 281 280 280 280 280 280 279 279 278 278 277 277 277 276 274 273 272 271 270 269 269 269 270 270
302 302 301 302 301 300 299 300 300 299 297 297 297 297 297 297 297 297 297 297 296 295 294 293 293 293 293 293 293 293 293 293 292 292 291 291 291 291 290 290 290 290 290 290 290 289 289 288 288 287 286 286 285 284 284 284 283 283 282 282 281 281 280 280 280 280 280 279 279 279 278 278 277 277 277 277 276 274 272 269 267 266 266 266 267 267
300 300 300 301 300 299 298 299 299 299 298 297 296 296 297 296 296 296 297 297 296 295 294 293 293 293 294 294 294 294 293 293 292 292 292 291 291 291 291 291 290 290 290 290 289 289 288 288 287 286 286 285 284 284 284 283 283 282 282 281 281 280 280 279 279 279 279 279 279 278 278 277 277 276 276 276 276 275 273 271 269 268 267 266 266 266
297 297 299 301 300 298 297 298 298 298 297 296 296 296 297 297 296 297 297 296 296 295 295 294 294 294 294 294 294 294 294 294 293 293 292 292 292 291 291 291 290 290 289 289 288 288 288 287 287 286 286 285 284 284 284 283 283 282 282 281 281 280 279 279 278 278 278 278 279 279 278 278 277 277 276 275 275 275 275 275 274 273 271 270 269 268
295 296 297 298 297 297 297 297 297 297 297 296 296 296 296 297 297 297 297 297 296 296 296 296 296 295 295 295 295 295 295 295 294 294 293 293 292 292 291 290 290 290 289 289 288 288 288 288 287 286 286 285 285 284 284 284 283 283 282 281 281 280 280 280 279 279 280 280 280 280 279 279 278 277 276 276 275 275 275 276 276 275 274 273 272 271
295 295 295 295 294 294 294 294 295 296 297 297 298 298 298 297 297 297 297 297 297 297 297 297 296 296 296 296 296 297 297 296 295 294 294 293 292 292 291 290 290 289 289 289 289 289 288 288 287 287 286 286 285 285 284 284 284 283 283 282 282 282 282 281 281 282 282 281 281 281 280 279 279 278 277 276 275 274 274 273 273 273 273 273 272 271
295 294 293 292 292 293 293 292 293 294 296 298 301 302 301 300 299 298 298 298 298 298 298 298 298 298 297 298 298 299 298 297 296 295 294 294 293 292 291 290 290 289 289 289 289 289 288 288 287 287 287 286 286 285 285 285 284 284 284 284 284 283 283 283 283 282 282 282 281 280 279 279 278 277 276 275 275 274 273 272 272 271 271 270 270 269
291 292 291 290 289 290 292 293 293 295 297 299 301 302 303 302 302 301 300 300 300 300 300 300 300 300 299 299 300 299 298 296 295 294 294 293 293 292 292 291 291 290 290 290 289 289 289 288 288 288 287 287 287 286 286 286 285 285 285 284 284 284 284 283 283 282 282 281 281 280 279 278 278 277 276 275 274 273 272 272 271 270 269 268 268 267
286 286 287 287 286 286 289 293 297 299 300 300 300 300 301 302 302 303 302 302 301 302 302 301 301 301 301 300 300 299 298 296 294 293 292 291 291 291 291 291 290 290 290 290 290 290 289 289 289 288 288 288 287 287 286 286 285 285 285 284 284 283 283 283 282 282 281 281 281 280 279 279 278 277 276 275 274 273 272 271 270 269 268 267 266 266
284 283 283 285 287 288 289 293 298 302 304 303 301 299 299 299 301 302 303 303 303 303 303 302 301 301 301 301 300 299 298 297 296 294 293 292 292 292 292 291 291 290 291 291 291 290 290 290 289 289 288 288 287 287 286 286 285 285 284 284 283 283 282 282 282 282 281 281 281 281 280 279 279 278 277 276 274 273 272 271 270 269 268 267 266 265
282 282 283 286 291 296 298 299 302 304 305 304 303 301 300 299 300 302 303 303 304 304 304 302 300 299 299 299 299 299 298 297 296 296 296 295 295 295 294 294 293 293 293 293 292 291 291 290 290 289 289 288 287 287 286 285 285 284 284 283 283 283 282 282 282 282 281 281 281 280 280 279 278 277 276 275 274 273 272 270 269 268 267 266 265 264
281 283 287 293 299 303 304 305 304 304 304 303 302 301 301 301 302 302 302 301 301 302 302 301 300 298 298 297 296 297 296 296 296 296 296 296 297 297 296 295 295 295 295 295 294 293 292 292 291 290 289 288 287 286 286 285 284 284 283 283 283 282 282 282 282 281 281 281 280 279 279 278 278 277 276 275 274 273 272 270 269 268 267 266 265 264
289 295 300 303 304 304 304 304 303 302 301 299 298 298 300 301 302 302 301 300 299 300 300 299 298 297 297 297 296 295 295 295 295 295 295 295 295 296 297 295 295 295 295 295 293 292 293 293 292 290 289 288 287 286 286 285 285 284 284 284 283 283 282 282 282 282 281 281 280 280 279 279 278 277 277 276 275 274 273 272 271 270 269 267 266 265
304 308 306 304 303 302 301 301 299 298 297 297 298 298 299 300 301 301 301 299 299 300 300 298 297 297 297 297 298 298 296 295 295 295 295 295 295 296 297 296 295 294 294 294 292 292 292 292 290 289 289 288 287 287 286 286 286 285 285 284 284 283 283 283 283 283 282 282 282 281 281 280 279 279 278 277 276 275 274 273 272 271 270 269 268 266
307 306 303 301 300 299 298 297 296 296 296 297 298 299 300 300 300 300 299 298 299 299 299 299 299 299 299 300 300 299 298 296 294 294 294 295 296 297 298 297 295 294 294 293 292 292 292 291 290 289 288 288 287 287 287 287 287 286 286 285 285 285 285 285 284 284 283 283 283 282 281 280 280 279 278 277 277 276 275 274 273 271 270 269 268 267
303 301 298 297 296 296 296 295 295 295 296 297 298 298 298 298 298 298 297 296 297 298 298 299 299 301 302 303 302 302 301 298 296 295 295 295 296 297 298 296 294 293 293 292 292 292 292 291 290 289 288 288 288 288 288 288 288 287 287 286 286 286 285 285 285 284 283 283 283 282 281 281 280 279 278 277 277 275 274 273 272 271 270 269 267 266
298 296 295 294 294 294 295 295 295 295 296 297 297 297 297 296 295 295 294 293 293 294 296 298 299 298 300 301 301 302 303 301 299 298 297 295 296 297 298 296 293 291 291 291 291 291 291 290 289 288 288 288 288 289 289 288 288 288 287 287 286 286 286 285 285 284 284 284 283 283 282 281 280 280 279 278 277 276 275 274 273 271 270 269 268 266
294 293 293 292 293 293 294 294 294 295 296 296 297 298 297 295 293 291 289 290 292 293 296 297 297 296 294 294 296 299 302 302 300 298 296 295 295 296 297 296 293 291 291 290 291 291 291 290 289 289 288 288 288 289 289 289 288 288 288 288 287 286 286 286 286 285 285 284 284 283 283 282 281 280 279 278 277 276 275 275 273 272 271 270 268 267
291 291 291 292 292 293 293 292 292 293 294 295 296 295 293 292 290 289 289 291 294 295 295 295 294 293 292 292 293 296 300 301 300 297 295 293 294 295 297 296 293 291 291 291 291 292 292 291 290 290 289 289 289 289 289 289 289 289 289 289 288 287 287 286 286 285 285 285 284 283 283 282 281 280 279 278 277 276 276 275 274 273 272 271 270 268
290 289 289 289 290 290 290 289 290 291 292 293 293 292 289 289 290 292 294 297 298 297 295 293 290 290 291 291 292 294 297 298 296 294 293 293 293 294 296 295 294 292 291 291 292 293 292 292 291 291 291 291 291 290 290 290 290 290 289 288 288 287 287 286 286 286 285 285 285 284 284 283 282 281 280 279 278 277 275 275 274 273 272 271 270 269
288 287 287 287 287 286 286 287 288 289 290 291 289 287 287 290 294 298 300 300 299 296 294 291 289 289 290 289 289 291 293 292 290 288 290 291 291 292 295 296 294 292 291 292 294 295 294 293 293 292 292 292 291 291 290 290 290 290 289 289 288 288 288 287 287 287 287 286 286 285 284 284 283 281 280 279 278 276 275 274 273 272 271 270 269 268
285 285 286 286 286 285 285 286 287 288 289 288 285 285 289 295 299 300 300 298 296 293 291 290 289 288 287 286 287 288 289 289 287 286 287 285 288 292 296 297 296 293 292 293 295 297 296 295 294 294 293 292 292 291 291 290 290 290 290 290 289 289 289 289 288 288 287 287 286 286 285 284 283 282 281 279 278 277 276 274 273 272 270 269 268 267
284 285 285 285 285 284 285 286 286 287 288 288 290 293 296 298 298 297 295 293 292 290 289 289 289 288 287 286 287 288 289 290 289 288 287 286 288 292 296 297 296 294 293 295 297 298 298 297 295 295 294 293 292 292 291 291 290 290 290 290 290 289 289 289 288 288 288 288 287 287 286 285 284 283 282 281 280 278 277 276 274 273 271 270 269 267
283 283 284 283 283 284 285 285 286 288 291 294 297 299 299 298 296 294 292 290 289 288 288 288 288 288 288 290 290 291 292 293 292 290 287 287 288 291 294 296 296 295 295 297 299 299 299 297 297 296 295 294 293 293 292 291 291 290 290 290 290 289 289 289 289 289 288 289 288 288 287 286 285 284 283 282 281 279 278 277 276 274 273 271 270 269
281 281 281 282 284 285 286 287 289 291 293 296 297 297 298 297 296 295 292 290 288 288 288 287 287 288 290 292 292 293 294 296 295 291 287 287 289 291 294 296 297 296 297 298 300 300 299 298 298 297 296 295 294 293 292 291 291 291 291 291 291 290 289 289 289 288 288 289 289 288 288 287 286 285 283 282 281 280 279 277 276 275 273 273 271 270
283 283 284 285 287 288 290 291 292 293 294 294 294 294 295 296 296 293 290 289 288 289 288 288 288 289 291 293 293 294 296 298 297 293 289 288 288 290 293 297 299 299 299 300 300 300 299 297 297 296 296 294 293 293 292 293 293 293 293 292 291 290 289 289 288 287 287 288 287 287 287 286 285 285 284 283 282 280 279 278 276 275 274 273 272 271
289 289 290 291 292 293 293 294 294 294 294 294 294 294 294 293 291 288 286 287 289 289 288 286 286 288 290 292 294 296 298 297 296 295 293 291 288 289 294 299 301 302 302 301 301 300 298 295 294 294 294 294 294 295 295 296 296 295 294 293 291 290 290 289 288 288 287 286 286 285 285 284 284 284 283 283 282 281 280 279 277 276 275 274 272 270
295 296 296 296 296 296 295 295 294 294 294 293 293 292 291 288 284 281 283 286 288 288 286 286 286 287 289 292 295 296 297 295 295 298 301 298 292 291 297 301 302 303 304 304 304 303 300 296 294 294 295 296 297 298 298 298 297 296 295 294 293 292 290 290 290 290 289 288 287 287 286 285 284 283 282 282 281 281 281 280 279 278 276 274 271 269
302 302 301 299 298 298 297 296 295 294 293 292 292 290 287 283 279 277 280 282 283 283 284 285 286 288 290 293 295 295 294 294 297 304 308 304 296 295 299 301 302 302 305 306 307 305 302 300 299 298 298 299 299 299 299 299 298 297 296 295 294 293 291 291 291 291 290 290 289 288 288 287 286 284 283 282 281 281 281 280 280 279 277 275 272 269
306 305 303 301 300 299 298 296 295 294 293 292 291 289 286 281 278 276 277 278 278 278 281 284 286 287 289 291 292 290 291 294 298 304 308 302 296 295 299 300 300 301 303 303 304 304 304 304 304 304 303 302 301 300 299 299 298 298 297 297 295 293 293 293 293 293 293 292 291 289 289 288 287 286 285 284 283 281 281 281 280 279 277 275 272 269
305 304 302 301 300 300 298 297 296 295 294 293 292 290 287 283 280 278 277 276 275 275 278 281 283 284 285 283 281 280 283 290 295 300 302 298 294 294 297 298 299 299 300 297 294 292 298 303 305 305 305 304 302 301 300 299 298 298 298 296 295 294 294 295 296 295 295 294 293 292 290 289 288 287 286 286 284 283 282 281 280 278 276 274 272 269
303 302 301 300 300 299 297 297 296 295 294 293 292 291 289 286 283 280 278 276 275 274 275 277 280 282 282 281 280 280 282 286 290 295 298 297 294 295 297 297 297 298 298 296 292 288 286 288 298 301 303 303 302 302 301 300 299 298 297 296 295 294 296 297 297 297 296 296 295 294 293 291 290 289 288 287 286 284 283 281 279 277 275 273 271 268
302 301 300 300 299 298 297 297 296 296 295 293 293 291 290 288 285 283 281 279 277 276 274 275 277 279 281 282 281 282 283 285 288 293 296 296 294 294 296 296 296 296 297 296 294 291 287 287 291 296 300 301 301 301 300 300 299 298 297 296 295 295 296 297 297 297 296 296 295 293 293 292 291 290 289 288 286 285 283 281 279 277 274 273 270 268
301 300 300 300 299 299 299 298 298 297 296 295 293 293 291 290 288 286 284 282 280 278 276 274 273 274 276 277 279 281 283 285 289 292 295 293 291 291 293 293 294 295 295 294 293 293 291 291 292 294 297 300 300 300 300 300 299 299 298 297 295 294 294 294 295 295 294 294 293 292 292 291 291 291 290 289 287 285 284 283 281 279 276 275 272 269
300 300 300 300 300 300 300 300 299 298 297 296 296 295 294 293 291 289 288 286 285 282 279 276 274 272 271 271 272 274 278 283 287 290 291 289 288 288 289 290 291 291 291 290 290 290 291 292 293 294 295 295 297 299 300 301 302 301 299 298 296 295 294 294 293 293 293 293 292 291 291 291 291 291 290 289 288 287 286 284 283 281 280 277 274 272
298 298 300 301 301 301 300 300 300 299 299 298 297 297 296 295 294 292 290 288 286 285 283 280 277 274 271 269 269 271 274 279 283 285 286 285 284 284 283 285 287 287 286 286 287 288 289 290 292 293 293 290 291 296 300 302 303 302 300 299 298 297 296 295 294 292 292 291 291 291 292 292 292 291 291 290 290 290 288 285 283 281 279 277 275 273
299 299 300 301 301 301 301 301 300 300 300 299 299 298 297 296 295 293 291 289 287 286 286 283 280 278 276 273 272 273 275 277 279 281 283 283 282 280 280 281 283 283 281 280 281 283 285 286 288 290 290 291 291 293 296 299 301 300 299 299 298 297 296 295 294 293 292 291 291 291 291 291 291 291 291 291 291 290 288 287 284 282 280 278 276 274
299 299 300 300 301 302 301 300 300 299 299 298 297 297 296 296 295 295 293 291 289 288 286 285 283 282 281 280 279 278 278 278 279 281 282 282 280 278 278 278 279 280 280 278 277 278 280 280 282 285 287 290 292 294 295 296 296 297 299 300 300 298 296 295 295 295 294 292 292 291 291 291 291 292 292 292 291 290 288 287 286 284 282 279 276 274
300 300 299 300 301 300 300 299 299 299 299 298 297 297 296 296 297 297 296 294 293 291 291 288 286 286 285 284 283 282 281 281 282 282 282 281 280 278 276 275 276 278 279 278 277 276 276 276 278 280 282 283 287 291 293 293 294 296 298 300 299 298 298 298 297 296 294 292 291 291 292 294 295 295 293 292 290 288 287 286 286 285 284 280 276 274
300 300 300 301 301 300 299 299 299 299 299 299 298 297 297 296 298 299 299 299 298 297 297 296 294 293 292 290 288 286 285 284 283 282 282 282 281 279 276 275 274 276 277 278 277 277 276 276 277 279 280 281 284 286 288 290 291 293 295 294 293 294 297 297 297 295 294 293 294 294 294 295 296 295 294 292 290 288 287 285 285 284 284 280 276 272
300 300 301 301 301 301 301 299 299 299 299 298 297 295 295 296 297 298 300 302 302 302 302 301 300 299 298 297 296 294 292 290 288 286 285 285 284 282 279 276 275 275 275 276 277 277 277 277 277 277 279 281 283 285 287 288 290 292 292 291 292 294 297 298 298 298 298 298 298 297 297 296 297 297 296 295 293 291 289 287 285 283 283 280 276 272
299 299 300 301 301 301 301 301 300 300 300 299 297 296 295 296 296 297 298 298 300 301 303 302 301 300 299 299 301 301 300 296 294 291 289 288 287 285 282 279 277 276 274 274 275 278 279 280 278 278 279 281 282 282 284 287 289 291 290 290 291 294 297 300 302 303 302 301 299 299 298 298 298 298 298 297 296 294 292 289 286 284 284 281 278 274
298 299 300 300 301 302 302 302 301 301 300 299 298 297 297 297 296 296 296 296 297 298 299 300 300 300 298 298 301 303 303 302 300 297 294 292 290 289 286 284 282 279 276 273 273 278 282 283 282 281 281 282 282 281 282 285 287 289 289 289 289 289 289 294 299 302 303 302 301 300 300 300 301 302 302 301 299 297 295 292 290 288 287 285 282 278
299 300 301 302 302 302 302 301 301 301 300 299 298 297 299 298 297 296 297 296 296 297 298 299 300 300 299 299 300 303 305 305 305 303 301 299 298 295 291 287 285 283 279 276 274 276 278 281 283 284 285 284 282 280 281 282 284 286 287 289 289 288 288 292 296 299 300 301 302 304 304 304 305 306 306 305 303 301 299 297 295 293 292 290 288 285
302 302 302 303 303 302 301 301 301 302 301 300 299 299 300 301 299 298 297 296 296 296 298 299 298 296 296 298 300 302 304 306 307 307 307 305 303 299 295 291 288 286 283 281 279 278 276 277 279 282 285 285 283 281 280 280 282 285 287 290 293 295 295 296 297 298 299 300 302 305 307 307 307 307 306 306 306 305 304 302 300 298 297 295 294 292
303 303 303 303 303 302 302 302 302 303 302 302 301 301 302 302 301 300 299 297 296 296 298 299 297 294 293 295 297 298 300 303 305 307 308 308 307 304 301 297 294 292 288 285 283 281 279 276 275 276 277 280 282 282 281 281 282 284 287 292 296 298 299 299 299 300 300 301 302 305 308 310 310 310 308 308 307 308 308 308 306 304 302 300 298 295
303 303 303 303 303 303 303 303 303 303 303 302 303 303 304 303 302 301 299 299 298 297 297 298 297 295 294 295 295 296 297 299 301 303 305 307 307 307 305 303 301 298 295 292 288 285 282 279 276 272 270 270 273 277 280 282 282 284 287 292 296 298 298 299 301 302 303 302 302 304 307 309 309 308 308 308 309 311 312 312 311 309 307 305 303 301
301 302 302 302 302 302 302 303 303 303 303 303 303 305 305 305 304 302 299 298 297 296 295 295 295 296 296 296 297 297 298 299 300 301 303 305 307 307 307 307 307 305 303 300 297 294 290 288 283 276 269 265 265 270 275 278 281 284 287 291 294 296 298 301 303 304 305 305 305 305 307 308 306 304 304 305 308 311 313 314 314 314 313 312 311 309
301 300 301 301 301 300 301 302 303 302 302 303 303 303 304 305 304 303 300 298 297 295 294 293 294 294 295 296 297 298 299 300 300 301 302 304 306 307 308 308 309 309 308 307 306 305 304 301 297 291 282 270 264 265 269 276 282 286 289 292 294 296 298 300 303 306 307 307 307 307 308 307 307 306 306 307 308 311 314 316 317 318 318 318 316 315
301 301 301 300 300 300 300 300 301 301 301 301 301 301 301 302 303 303 302 300 298 297 296 295 293 293 294 294 296 297 298 298 299 300 301 304 306 306 307 308 309 310 310 310 310 311 310 309 307 306 303 294 282 272 274 282 289 294 295 296 298 300 300 301 304 306 308 308 307 307 308 309 310 311 312 311 311 312 314 317 319 320 320 319 319 317